Content
SEND FEEDBACK

Daily
Averages
Monthly
Summary
Mexico

PUEBLA - JARDINES DE SAN MANUEL, PUEBLA


Home > North America > Mexico > Puebla
Elevation: 2122 meters     Latitude: 19 00N     Longitude: 098 11W

WEATHER
 
SELECT A DAY
Number of Records: 123,934;   Date Range: 1/1/95 - 10/22/14
 
SHARE

PRINT THIS DATA

[ ← Previous Day ]
WEATHER ALMANAC - 21 JANUARY, 2013
[ Next Day → ]
[ °F ]   °C
Weather ElementAverageHighLow
Temperature12.6 °C17.2 °C (2:40 pm)7 °C (6:00 am)
Dewpoint3.2 °C7.2 °C (11:45 pm)0 °C (2:41 pm)
Humidity52.3 %76 % (6:00 am)27 % (2:40 pm)
Barometer1024.4 hPa1029.8 hPa (10:41 am)1012.9 hPa (5:40 pm)
Wind Speed6.3 km/h13 km/h (11:40 am)
Weather ElementAverage
Visibility10.1 km
Wind DirectionSSE (160.5 °)

Weather ElementTotal
Precipitation---
Heating Degree Days6.2 (Base 18.3)
Growing Degree Days2.1 (Base 10)
Averaged from 24 records on 21 January, 2013
WEATHER CONDITIONS BREAKOUT
WIND DIRECTION BREAKOUT
WEATHER BY HOUR - 21 JANUARY, 2013
[ °F ]   °C
Local TimeTemperatureDewpointHumidityBarometerVisibilityWind DirectionWind SpeedGust SpeedPrecipitationEventsConditions
5:58 AM8.3 °C4.4 °C68 %1015.2 hPa4.8 kmCalm
6:00 AM7 °C3 °C76 %1026.4 hPa11.3 kmNNW (330°)7.4 km/hMostly Cloudy
6:42 AM7 °C3 °C76 %1026.8 hPa11.3 kmNNW (330°)7.4 km/hOvercast
7:41 AM8 °C3 °C71 %1027.1 hPa11.3 kmNW (320°)5.6 km/hOvercast
8:41 AM10 °C3 °C62 %1028.8 hPa11.3 kmNW (320°)5.6 km/hOvercast
9:40 AM10 °C3 °C62 %1029.5 hPa11.3 kmENE (60°)7.4 km/hOvercast
10:41 AM13 °C3 °C51 %1029.8 hPa11.3 kmENE (60°)9.3 km/hOvercast
11:40 AM16 °C2 °C39 %1029.1 hPa11.3 kmNW (320°)13 km/hOvercast
11:50 AM13.9 °C4.4 °C41 %1019.6 hPa4.8 kmSSE (150°)3.5 km/hHaze
12:40 PM16 °C1 °C36 %1028.1 hPa11.3 kmNW (320°)13 km/hOvercast
1:40 PM17 °C1 °C34 %1026.4 hPa12.9 kmNNE (20°)5.6 km/hOvercast
2:40 PM17.2 °C3.3 °C27 %1014.6 hPa4.8 kmEast (90°)3.5 km/hHaze
2:41 PM16 °C0 °C34 %1026.1 hPa12.9 kmSE (130°)9.3 km/hOvercast
3:41 PM16 °C2 °C39 %1025.7 hPa12.9 kmSW (220°)11.1 km/hOvercast
4:42 PM15 °C3 °C45 %1025.7 hPa12.9 kmSE (130°)13 km/hOvercast
5:40 PM14.4 °C3.9 °C38 %1012.9 hPa4.8 kmNorth3.5 km/hHaze
5:42 PM14 °C3 °C48 %1026.1 hPa12.9 kmESE (120°)13 km/hOvercast
6:44 PM13 °C3 °C51 %1026.4 hPa12.9 kmEast (100°)5.6 km/hOvercast
7:41 PM13 °C3 °C51 %1026.8 hPa11.3 kmCalmOvercast
8:40 PM12 °C4 °C58 %1027.8 hPa11.3 kmCalmOvercast
8:45 PM13.3 °C4.4 °C44 %1012.9 hPa4.8 kmEast (90°)3.5 km/hOvercast
9:47 PM10 °C5 °C71 %1028.4 hPa11.3 kmEast (100°)3.7 km/hOvercast
10:41 PM10 °C3 °C62 %1028.1 hPa11.3 kmNW (320°)5.6 km/hOvercast
11:45 PM11.1 °C7.2 °C71 %1014.2 hPa4.8 kmCalmOvercast
Hourly data recorded from MMPB, located 0 kilometers away from Puebla - Jardines de San Manuel, Puebla







STORIES FROM OUR PARTNERS